Powrót do katalogu

COSMOS 1528

AktywnyMilitariaLEO
NORAD 14617·PAYLOAD·🇷🇺 Russia

Wystrzelony Jan 5, 1984 z Plesetsk Cosmodrome

Loading…

Następne Przeloty (najbliższe 24 godziny)

TLE

ŚwieżeSource: Space-Track

Epoka: Sep 14, 2026, 09:47 UTC

1 14617U 84001G   26257.40816159 -.00000024  00000-0 -54124-4 0  9996
2 14617  74.0058 228.7333 0010896 294.3576 140.5909 12.49039583946565

Śledź COSMOS 1528 w czasie rzeczywistym z AllMySat

Download on the App Store